Location: St. Louis
(38.6270°N, 90.1994°W)
Time: 00:15:15
(UTC-05:00)

M-CUBED/EXP-1 PRIME - Visible Passes

Search period start: 10 August 2022 00:00
Search period end: 20 August 2022 00:00
Orbit: 422 x 631 km, 101.7° (Epoch: 09 August)

Date Brightness Start Highest point End Pass type
(mag) Time Alt. Az. Time Alt. Az. Time Alt. Az.
10 Aug ? 03:24:07 47° E 03:24:28 48° ENE 03:28:40 10° N visible
10 Aug ? 04:59:21 13° W 04:59:21 13° W 05:00:48 10° WNW visible
11 Aug ? 03:12:26 32° E 03:13:08 34° ENE 03:17:05 10° N visible
11 Aug ? 04:47:39 19° W 04:47:39 19° W 04:50:11 10° NW visible
12 Aug ? 03:00:44 23° E 03:01:49 25° ENE 03:05:23 10° N visible
12 Aug ? 04:35:57 28° W 04:35:57 28° W 04:39:14 10° NW visible
13 Aug ? 02:49:01 16° E 02:50:30 19° ENE 02:53:33 10° NNE visible
13 Aug ? 04:24:14 40° W 04:24:14 40° W 04:28:05 10° NNW visible
14 Aug ? 02:37:16 11° E 02:39:13 14° ENE 02:41:26 10° NNE visible
14 Aug ? 04:12:29 59° WSW 04:12:29 59° WSW 04:16:48 10° NNW visible
15 Aug ? 02:27:42 10° ENE 02:27:55 10° ENE 02:28:09 10° NE visible
15 Aug ? 04:00:43 78° S 04:00:59 85° WSW 04:05:23 10° NNW visible
16 Aug ? 03:48:57 59° ESE 03:49:31 67° ENE 03:53:53 10° NNW visible
16 Aug ? 05:24:10 10° W 05:24:10 10° W 05:24:30 10° W visible
17 Aug ? 03:37:08 40° ESE 03:38:04 47° ENE 03:42:17 10° N visible
17 Aug ? 05:12:21 15° W 05:12:21 15° W 05:14:38 10° WNW visible
18 Aug ? 03:25:19 28° E 03:26:37 34° ENE 03:30:35 10° N visible
18 Aug ? 05:00:32 22° W 05:00:32 22° W 05:03:48 10° NW visible
19 Aug ? 03:13:30 19° E 03:15:12 25° ENE 03:18:46 10° N visible
19 Aug ? 04:48:42 30° WSW 04:48:48 30° WSW 04:52:42 10° NW visible
